Date String (YYYY-MM-DD hh:mm:ss) UTC,Instrument flags,absolute air pressure of the measurement (hPa),sample flow rate (lpm),inlet stack bypass flow (lpm),air temperature of the measurement (°C),ambient temperature measured by the external sensor (°C),aerosol sample conditioner tube jacket temperature (°C),OPC LED temperature (°C),internal box temperature (°C),relative humidity of the measurement (%),span deviation,mass concentration of particles derived from Lorenz-Mie calculation of OPC scattering (μg/m³),mass concentration of particles derived from Lorenz-Mie calculation of OPC scattering (μg/m³),mass concentration of particles derived from Lorenz-Mie calculation of OPC scattering (μg/m³)
DateTimeUTC,F1_M11,P_M11,Q1_M11,Q2_M11,T1_M11,T2_M11,T3_M11,T4_M11,T5_M11,U1_M11,ZSPAN_M11,X0_M11,X2_M11,X1_M11
2023-09-01 17:00:00,SystemResetWarning,0831.6,4.98,000.00,027.9,026.0,000.0,036.1,029.4,26.2,0000.0,0009.75,0003.69,0003.17
2023-09-01 17:01:00,SystemResetWarning,0831.6,5.00,000.00,027.8,024.7,000.0,036.0,029.0,25.6,0000.0,0009.71,0003.69,0003.18
2023-09-01 17:02:00,SystemResetWarning,0831.5,5.00,000.00,027.7,024.5,000.0,035.9,029.0,26.4,0000.0,0009.27,0003.71,0003.19
2023-09-01 17:03:00,SystemResetWarning,0831.5,5.01,000.00,027.7,024.9,000.0,035.9,029.0,26.6,0000.0,0009.55,0003.69,0003.20
2023-09-01 17:04:00,SystemResetWarning,0831.6,5.00,000.00,027.6,025.2,000.0,036.0,029.1,25.5,0000.0,0009.91,0003.72,0003.20
2023-09-01 17:05:00,SystemResetWarning,0831.6,5.00,000.00,027.7,025.6,000.0,036.0,029.3,25.8,0000.0,0010.19,0003.74,0003.22
2023-09-01 17:06:00,SystemResetWarning,0831.6,5.00,000.00,027.7,026.0,000.0,036.0,029.4,25.4,0000.0,0009.84,0003.73,0003.23
2023-09-01 17:07:00,SystemResetWarning,0831.6,5.00,000.00,027.8,026.3,000.0,036.0,029.5,25.6,0000.0,0009.04,0003.76,0003.23
2023-09-01 17:08:00,SystemResetWarning,0831.6,4.99,000.00,027.8,026.5,000.0,036.0,029.6,25.9,0000.0,0009.30,0003.83,0003.23
2023-09-01 17:09:00,SystemResetWarning,0831.6,4.98,000.00,027.8,025.5,000.0,036.0,029.2,26.0,0000.0,0009.87,0003.91,0003.23
2023-09-01 17:10:00,SystemResetWarning,0831.6,5.02,000.00,027.7,024.5,000.0,035.9,029.0,26.9,0000.0,0010.65,0003.94,0003.24
2023-09-01 17:11:00,SystemResetWarning,0831.6,5.01,000.00,027.7,024.7,000.0,035.9,029.0,26.7,0000.0,0010.05,0003.94,0003.24
2023-09-01 17:12:00,SystemResetWarning,0831.6,4.99,000.00,027.6,025.0,000.0,035.9,029.0,26.1,0000.0,0010.08,0003.94,0003.24
2023-09-01 17:13:00,SystemResetWarning,0831.6,5.00,000.00,027.7,025.4,000.0,035.9,029.2,26.2,0000.0,0009.97,0003.94,0003.26
2023-09-01 17:14:00,SystemResetWarning,0831.6,5.01,000.00,027.7,025.8,000.0,036.0,029.3,26.5,0000.0,0009.99,0003.99,0003.27
2023-09-01 17:15:00,SystemResetWarning,0831.6,4.99,000.00,027.7,026.2,000.0,036.0,029.5,26.5,0000.0,0010.06,0004.04,0003.27
2023-09-01 17:16:00,SystemResetWarning,0831.6,5.00,000.00,027.8,026.5,000.0,036.0,029.6,26.6,0000.0,0009.88,0004.04,0003.27
2023-09-01 17:17:00,SystemResetWarning,0831.6,5.00,000.00,027.8,026.1,000.0,036.0,029.4,26.0,0000.0,0010.68,0004.09,0003.27
2023-09-01 17:18:00,SystemResetWarning,0831.6,5.00,000.00,027.7,024.9,000.0,036.0,029.0,26.8,0000.0,0011.03,0004.13,0003.27
2023-09-01 17:19:00,SystemResetWarning,0831.6,5.02,000.00,027.7,024.6,000.0,035.9,029.0,26.6,0000.0,0010.85,0004.10,0003.28
2023-09-01 17:20:00,SystemResetWarning,0831.6,5.01,000.00,027.6,024.9,000.0,035.9,029.0,26.6,0000.0,0010.38,0004.09,0003.29
2023-09-01 17:21:00,SystemResetWarning,0831.7,5.00,000.00,027.6,025.2,000.0,035.9,029.1,25.5,0000.0,0009.85,0004.10,0003.30
2023-09-01 17:22:00,SystemResetWarning,0831.7,5.00,000.00,027.7,025.7,000.0,035.9,029.3,25.7,0000.0,0009.89,0004.13,0003.30
2023-09-01 17:23:00,SystemResetWarning,0831.7,5.00,000.00,027.7,026.0,000.0,036.0,029.4,25.0,0000.0,0009.82,0004.16,0003.31
2023-09-01 17:24:00,SystemResetWarning,0831.7,5.00,000.00,027.8,026.4,000.0,036.0,029.5,25.9,0000.0,0009.89,0004.16,0003.31
2023-09-01 17:25:00,SystemResetWarning,0831.7,5.00,000.00,027.8,026.5,000.0,036.0,029.6,26.7,0000.0,0009.90,0004.19,0003.32
2023-09-01 17:26:00,SystemResetWarning,0831.7,4.98,000.00,027.8,025.6,000.0,036.0,029.2,26.0,0000.0,0010.61,0004.16,0003.32
2023-09-01 17:27:00,SystemResetWarning,0831.6,5.02,000.00,027.7,024.5,000.0,035.9,028.9,26.3,0000.0,0011.04,0004.14,0003.33
2023-09-01 17:28:00,SystemResetWarning,0831.7,5.01,000.00,027.6,024.7,000.0,035.9,029.0,26.0,0000.0,0010.39,0004.10,0003.34
2023-09-01 17:29:00,SystemResetWarning,0831.7,4.98,000.00,027.6,025.0,000.0,035.9,029.0,25.8,0000.0,0009.94,0004.10,0003.35
2023-09-01 17:30:00,SystemResetWarning,0831.7,5.00,000.00,027.6,025.4,000.0,035.9,029.2,26.0,0000.0,0009.78,0004.08,0003.35
2023-09-01 17:31:00,SystemResetWarning,0831.7,5.00,000.00,027.7,025.8,000.0,035.9,029.3,25.1,0000.0,0010.03,0004.06,0003.34
2023-09-01 17:32:00,SystemResetWarning,0831.7,5.01,000.00,027.7,026.2,000.0,036.0,029.4,24.9,0000.0,0010.55,0004.08,0003.33
2023-09-01 17:33:00,SystemResetWarning,0831.7,5.01,000.00,027.8,026.5,000.0,036.0,029.5,24.6,0000.0,0010.59,0004.11,0003.33
2023-09-01 17:34:00,SystemResetWarning,0831.7,4.99,000.00,027.8,026.2,000.0,036.0,029.4,24.4,0000.0,0010.71,0004.12,0003.34
2023-09-01 17:35:00,SystemResetWarning,0831.7,4.99,000.00,027.7,024.9,000.0,035.9,029.0,24.6,0000.0,0011.32,0004.16,0003.34
2023-09-01 17:36:00,SystemResetWarning,0831.6,5.02,000.00,027.6,024.5,000.0,035.9,028.9,24.1,0000.0,0012.37,0004.18,0003.35
2023-09-01 17:37:00,SystemResetWarning,0831.7,5.01,000.00,027.6,024.8,000.0,035.9,029.0,24.5,0000.0,0012.80,0004.22,0003.36
2023-09-01 17:38:00,SystemResetWarning,0831.7,5.00,000.00,027.6,025.2,000.0,035.9,029.1,24.0,0000.0,0011.79,0004.25,0003.36
2023-09-01 17:39:00,SystemResetWarning,0831.7,5.00,000.00,027.6,025.6,000.0,035.9,029.2,23.6,0000.0,0011.95,0004.27,0003.36
2023-09-01 17:40:00,SystemResetWarning,0831.7,5.01,000.00,027.7,026.0,000.0,035.9,029.4,24.0,0000.0,0012.00,0004.28,0003.35
2023-09-01 17:41:00,SystemResetWarning,0831.7,5.00,000.00,027.7,026.4,000.0,036.0,029.5,23.1,0000.0,0012.03,0004.28,0003.34
2023-09-01 17:42:00,SystemResetWarning,0831.7,5.00,000.00,027.8,026.6,000.0,036.0,029.6,23.0,0000.0,0011.98,0004.29,0003.34
2023-09-01 17:43:00,SystemResetWarning,0831.7,4.98,000.00,027.8,025.6,000.0,035.9,029.2,23.5,0000.0,0011.34,0004.29,0003.35
2023-09-01 17:44:00,SystemResetWarning,0831.6,5.01,000.00,027.7,024.6,000.0,035.9,028.9,23.0,0000.0,0010.96,0004.23,0003.36
2023-09-01 17:45:00,SystemResetWarning,0831.6,5.02,000.00,027.6,024.7,000.0,035.9,029.0,23.5,0000.0,0010.98,0004.24,0003.36
2023-09-01 17:46:00,SystemResetWarning,0831.7,4.99,000.00,027.6,025.0,000.0,035.9,029.0,23.2,0000.0,0010.67,0004.23,0003.36
2023-09-01 17:47:00,SystemResetWarning,0831.7,5.00,000.00,027.6,025.4,000.0,035.9,029.2,24.5,0000.0,0009.77,0004.22,0003.36
2023-09-01 17:48:00,SystemResetWarning,0831.7,5.01,000.00,027.7,025.8,000.0,035.9,029.3,25.0,0000.0,0009.64,0004.21,0003.37
2023-09-01 17:49:00,SystemResetWarning,0831.7,5.00,000.00,027.7,026.2,000.0,035.9,029.4,24.9,0000.0,0009.63,0004.20,0003.37
2023-09-01 17:50:00,SystemResetWarning,0831.7,4.99,000.00,027.8,026.4,000.0,036.0,029.5,25.1,0000.0,0009.43,0004.19,0003.37
2023-09-01 17:51:00,SystemResetWarning,0831.7,4.98,000.00,027.8,025.5,000.0,035.9,029.2,25.0,0000.0,0010.24,0004.24,0003.39
2023-09-01 17:52:00,SystemResetWarning,0831.7,5.01,000.00,027.6,024.4,000.0,035.9,028.9,24.7,0000.0,0010.64,0004.26,0003.41
2023-09-01 17:53:00,SystemResetWarning,0831.7,5.01,000.00,027.6,024.5,000.0,035.8,028.9,24.9,0000.0,0010.61,0004.26,0003.42
2023-09-01 17:54:00,SystemResetWarning,0831.7,5.00,000.00,027.6,024.9,000.0,035.8,029.0,25.0,0000.0,0010.58,0004.25,0003.42
2023-09-01 17:55:00,SystemResetWarning,0831.7,5.00,000.00,027.6,025.3,000.0,035.9,029.1,24.5,0000.0,0011.29,0004.25,0003.41
2023-09-01 17:56:00,SystemResetWarning,0831.7,5.00,000.00,027.6,025.7,000.0,035.9,029.3,24.9,0000.0,0011.63,0004.22,0003.41
2023-09-01 17:57:00,SystemResetWarning,0831.7,5.00,000.00,027.7,026.1,000.0,035.9,029.4,24.9,0000.0,0011.57,0004.21,0003.42
2023-09-01 17:58:00,SystemResetWarning,0831.8,5.00,000.00,027.7,026.4,000.0,035.9,029.5,24.3,0000.0,0011.57,0004.22,0003.42
2023-09-01 17:59:00,SystemResetWarning,0831.7,4.99,000.00,027.8,026.3,000.0,035.9,029.4,24.2,0000.0,0011.28,0004.18,0003.39
